Wind_Speed
15 15 14 14 13 12 13 14 15 14 15 15 15 16 14 13 14 14 13 11 11 11 12 13 14 15 16 17 19 20 22 24 25 26 27 27 28 28 28 29 30 31 31 32
14 15 17 15 15 15 16 16 17 17 18 16 16 16 15 15 14 15 15 13 12 12 13 15 16 17 19 20 21 23 24 26 27 28 29 30 30 30 31 31 32 33 34 34
17 16 17 18 18 19 20 21 22 22 21 19 16 17 17 17 17 16 16 15 14 14 16 17 19 20 21 23 24 26 27 28 30 31 31 32 32 32 33 34 35 35 36 37
20 18 18 17 20 22 22 22 23 26 26 22 20 18 17 17 17 17 17 18 18 19 20 21 22 24 25 26 27 28 30 31 32 33 33 34 34 35 35 36 37 38 39 39
21 20 19 19 21 22 22 22 22 21 22 21 20 19 17 16 18 18 21 23 24 25 25 26 27 28 28 29 30 31 33 34 35 35 36 36 37 37 38 39 40 41 41 42
24 24 22 21 21 21 22 21 21 20 21 22 22 20 17 17 20 23 25 26 27 28 29 30 31 31 31 32 32 33 35 36 37 38 38 39 39 40 41 42 43 43 44 44
26 26 25 22 21 21 21 19 19 20 20 20 20 21 20 20 22 25 27 28 30 31 32 32 33 34 34 35 34 35 37 38 39 40 41 41 42 43 44 45 46 46 46 46
26 26 25 24 24 21 17 18 19 18 18 19 20 20 21 23 25 27 29 31 32 33 34 35 35 36 37 37 38 39 39 40 41 43 44 44 46 47 47 48 48 48 48 48
26 25 24 24 24 21 19 20 19 19 20 20 21 21 23 25 27 29 30 32 33 34 36 37 38 38 39 40 41 42 42 43 44 46 47 48 49 50 50 50 50 50 51 51
26 26 26 25 25 23 20 20 22 23 23 23 23 25 26 28 29 30 32 33 34 36 37 38 39 40 41 42 43 44 45 46 47 49 49 50 51 52 53 53 53 53 54 54
29 28 28 28 25 25 24 23 24 25 26 27 28 28 29 30 31 32 33 34 36 37 38 39 40 41 42 43 44 46 47 49 50 51 52 53 54 55 55 56 57 57 57 57
30 29 29 29 27 26 25 25 25 27 29 31 32 32 33 33 34 34 35 36 37 38 39 40 41 42 43 45 46 48 49 51 52 54 55 56 57 58 59 59 59 60 59 59
30 30 29 28 28 29 29 29 30 32 33 34 34 34 35 36 36 37 38 39 40 40 41 43 44 45 46 48 49 51 52 54 55 57 58 59 60 61 61 61 61 61 60 59
27 28 29 29 30 32 32 32 33 33 33 34 35 36 37 38 38 39 40 41 42 44 45 46 47 49 50 51 53 55 56 58 59 61 62 63 63 64 64 63 62 60 59 57
25 27 29 30 31 33 33 33 34 34 35 36 37 38 39 40 42 43 44 45 46 48 49 50 52 53 54 56 57 59 60 61 62 63 64 65 65 65 64 64 62 60 58 55
25 27 29 29 30 31 32 33 34 36 37 38 40 41 42 44 45 46 48 49 50 52 53 55 56 58 59 60 61 62 63 64 64 64 65 65 65 64 63 62 60 58 55 53
27 27 28 28 29 30 32 33 35 37 39 40 42 44 45 47 48 50 52 53 55 56 57 59 60 61 62 63 63 64 64 64 64 64 64 64 64 63 61 59 57 54 51 49
27 27 28 29 30 31 33 35 37 39 42 43 45 47 48 50 51 53 55 56 57 58 60 61 62 63 63 63 63 63 63 63 62 61 61 60 59 58 56 54 51 48 45 42
28 29 30 31 32 34 37 39 41 43 45 47 48 50 51 53 54 56 57 58 59 60 61 61 61 61 61 61 60 59 58 57 57 56 55 54 53 51 49 46 42 39 37 35
31 33 35 36 38 39 41 43 45 46 48 49 50 52 53 55 56 57 58 59 60 59 59 58 57 56 55 54 54 53 52 51 51 50 49 48 46 44 41 38 34 30 29 30
35 36 38 40 42 43 45 46 48 49 50 51 53 54 55 56 57 57 57 56 55 54 53 52 50 49 48 48 48 47 47 47 46 46 44 41 39 36 32 28 25 24 23 23
39 40 41 43 44 46 47 49 50 51 52 53 55 55 56 55 55 53 52 50 48 48 47 45 44 44 44 44 44 44 44 44 44 42 40 36 33 29 25 23 21 19 18 19
41 43 44 46 47 48 49 50 52 53 53 54 54 54 53 51 49 47 45 44 43 43 41 40 41 41 41 42 43 43 42 41 40 38 34 30 27 24 21 19 17 15 15 16
44 45 47 48 49 50 51 52 52 53 52 52 51 49 47 45 43 41 40 39 39 37 37 38 39 40 40 41 41 40 39 37 36 33 28 25 22 18 15 13 12 11 11 11
45 47 48 49 50 50 50 50 50 49 48 47 45 42 40 39 37 36 36 35 35 35 36 37 39 39 40 40 39 37 36 34 31 27 23 19 15 12 9 7 7 7 7 7
46 47 47 48 48 48 48 47 46 44 42 40 38 36 35 34 33 32 31 32 33 34 36 37 38 38 38 37 36 34 31 28 25 20 16 12 9 6 3 1 2 4 3 3
45 46 46 46 46 45 44 42 40 38 36 34 33 32 31 30 29 29 29 31 32 34 35 35 35 36 35 33 31 28 25 22 18 14 11 8 6 3 2 3 3 3 3 2
Wind_Direction
300 293 280 264 258 259 263 260 261 267 276 283 289 293 292 293 297 304 311 315 314 307 302 300 299 298 296 295 294 293 292 292 293 295 297 298 300 302 303 303 304 305 307 307
294 287 274 266 257 259 264 264 263 266 271 274 277 285 290 290 292 299 305 308 307 302 299 298 296 295 294 293 292 291 290 290 291 293 294 296 298 299 300 301 303 305 307 307
287 282 276 266 263 260 261 266 268 265 267 267 267 275 279 284 290 296 300 301 300 296 296 295 295 294 294 293 291 290 290 290 290 292 293 294 296 297 298 300 303 304 305 306
282 283 275 270 263 262 266 271 270 265 264 260 261 265 268 277 285 291 297 299 298 295 293 292 293 293 294 293 292 291 291 290 291 291 292 294 296 297 299 300 302 304 304 305
278 280 277 274 270 268 269 279 280 277 266 265 263 266 264 276 286 290 295 296 295 294 292 290 291 292 293 293 292 292 292 291 291 292 293 294 296 298 298 300 301 302 303 304
273 275 276 277 277 273 275 284 290 288 281 274 268 265 277 283 287 291 292 292 292 292 292 292 292 292 292 292 291 291 291 291 292 293 294 295 296 297 297 299 301 302 302 304
275 276 274 277 275 275 278 286 293 293 289 282 282 277 284 288 289 292 292 291 291 291 291 292 292 293 292 291 291 291 291 291 292 292 293 294 294 295 296 297 299 300 301 302
277 279 280 285 280 272 279 292 298 295 294 293 295 294 293 292 292 291 291 291 291 292 292 291 291 291 291 290 291 290 290 290 291 291 292 292 292 293 295 296 297 298 299 300
280 282 286 292 289 277 283 289 292 293 298 300 300 298 296 294 292 291 291 290 290 290 290 289 289 289 289 290 289 290 290 289 289 289 290 291 292 292 293 295 296 297 297 298
283 285 291 295 296 287 285 288 294 299 301 301 301 299 298 296 295 294 292 291 291 290 290 289 289 290 290 290 289 289 289 289 289 289 289 290 291 292 293 294 294 295 295 295
283 286 291 293 291 290 294 294 293 296 299 302 302 302 300 299 296 295 294 293 292 291 291 290 290 290 290 290 289 289 289 289 290 290 289 289 291 291 291 292 292 292 293 293
283 286 289 290 290 292 295 293 294 297 300 301 301 301 299 298 297 296 295 294 293 293 292 292 291 290 290 289 289 289 289 289 289 289 289 289 289 289 290 290 290 290 291 290
282 286 288 289 288 289 292 294 296 297 299 300 300 299 299 298 298 297 297 296 296 295 294 294 293 293 292 292 291 291 290 290 289 289 289 289 289 289 289 288 288 288 288 288
278 281 282 283 286 289 291 293 296 298 299 299 299 298 299 299 299 298 298 298 297 297 296 296 295 295 295 294 294 293 293 292 292 291 291 290 290 289 289 288 287 286 286 285
276 278 281 284 288 291 293 296 298 299 299 299 299 299 299 299 299 299 299 299 299 299 298 298 298 297 297 296 296 295 294 293 293 292 292 291 290 289 289 288 287 286 285 283
276 278 282 288 291 293 294 296 297 298 298 298 299 299 299 300 300 300 300 300 300 300 300 300 300 299 299 298 297 297 296 295 294 293 292 291 290 289 288 287 286 285 283 281
278 280 283 288 291 292 294 295 295 295 296 297 298 299 299 300 300 301 301 301 301 302 302 301 301 301 300 300 299 298 298 297 296 295 293 292 291 290 288 287 285 282 280 278
281 285 287 289 291 292 293 294 294 295 296 297 298 299 300 300 301 301 302 302 302 303 303 303 302 302 301 301 300 300 299 298 298 297 296 295 293 292 290 287 284 281 278 275
291 291 291 291 291 292 293 294 295 296 297 298 299 299 300 301 302 302 303 303 303 303 303 303 303 302 302 302 302 302 302 301 301 300 299 298 296 293 291 287 283 280 276 271
289 289 290 290 290 292 293 295 296 297 298 299 299 300 301 302 303 303 304 304 305 305 305 305 304 304 304 305 305 305 304 305 305 304 303 302 300 296 292 286 280 275 271 266
286 288 289 289 290 292 295 296 297 298 299 300 301 301 302 303 304 304 305 305 306 306 306 306 306 307 308 308 309 309 309 309 309 308 307 306 304 301 294 285 275 271 267 261
287 288 290 291 294 295 297 298 299 299 300 300 301 302 303 304 304 305 305 306 306 307 308 308 309 310 311 312 312 312 312 312 311 310 309 308 307 304 295 285 275 268 261 254
289 290 292 293 295 296 297 298 298 299 300 301 301 302 303 304 305 305 306 307 307 309 310 311 313 314 314 315 316 316 315 315 315 313 311 309 307 304 295 283 273 263 259 256
290 292 293 294 295 296 297 298 299 299 300 301 302 303 304 304 305 306 307 308 310 312 313 315 317 317 317 317 318 318 318 318 318 317 313 310 309 304 295 283 266 256 252 251
290 292 293 294 296 297 297 298 298 299 300 301 302 303 304 304 305 306 307 309 311 313 315 317 318 319 319 319 320 320 320 321 321 320 317 314 312 309 300 279 258 243 238 240
291 292 293 294 296 296 297 298 298 299 299 300 301 302 304 305 306 307 308 311 313 316 318 319 320 320 321 322 322 322 323 325 327 328 328 328 327 321 317 287 220 202 207 219
293 294 295 296 297 298 299 299 299 299 300 300 301 302 303 304 306 308 311 313 316 318 320 321 322 324 325 326 326 328 331 334 338 344 352 0 10 32 83 99 112 129 134 142
Height
5858 5856 5855 5855 5854 5853 5852 5851 5851 5850 5850 5849 5849 5848 5848 5847 5847 5847 5847 5846 5845 5845 5844 5843 5843 5842 5841 5840 5839 5838 5836 5834 5832 5830 5827 5825 5822 5819 5815 5812 5808 5805 5801 5798
5855 5853 5850 5850 5850 5849 5848 5847 5846 5845 5845 5844 5843 5843 5843 5843 5843 5842 5842 5842 5841 5840 5839 5838 5838 5837 5836 5835 5833 5832 5830 5828 5825 5823 5820 5817 5814 5811 5807 5804 5800 5797 5793 5789
5850 5849 5847 5846 5846 5844 5843 5842 5842 5841 5841 5839 5839 5839 5839 5838 5838 5837 5837 5837 5837 5836 5835 5834 5833 5831 5830 5828 5827 5825 5823 5820 5818 5815 5812 5809 5806 5802 5799 5795 5791 5788 5784 5780
5845 5845 5843 5844 5840 5839 5838 5837 5837 5836 5835 5834 5834 5834 5834 5834 5833 5833 5832 5832 5831 5831 5830 5828 5827 5825 5823 5821 5819 5817 5814 5812 5809 5806 5803 5800 5797 5793 5789 5785 5782 5778 5774 5770
5838 5837 5837 5837 5835 5834 5834 5833 5831 5830 5829 5829 5829 5829 5829 5829 5828 5828 5827 5826 5825 5824 5822 5821 5819 5817 5815 5813 5810 5808 5805 5802 5800 5797 5793 5790 5786 5783 5779 5775 5771 5767 5763 5758
5831 5831 5831 5832 5830 5829 5829 5828 5827 5826 5825 5824 5824 5824 5824 5823 5822 5822 5821 5819 5818 5816 5814 5812 5810 5808 5806 5804 5801 5799 5796 5793 5790 5786 5783 5779 5775 5772 5768 5764 5760 5756 5751 5746
5824 5823 5824 5824 5823 5822 5823 5824 5822 5820 5819 5819 5818 5818 5817 5816 5815 5815 5813 5811 5809 5807 5805 5803 5801 5798 5796 5794 5791 5789 5785 5782 5779 5775 5771 5767 5764 5760 5756 5751 5747 5743 5739 5734
5818 5818 5819 5817 5816 5816 5816 5816 5816 5815 5814 5813 5812 5810 5809 5808 5807 5806 5804 5802 5800 5797 5795 5793 5791 5788 5785 5783 5780 5777 5774 5770 5767 5763 5759 5755 5751 5747 5743 5739 5734 5730 5726 5721
5813 5813 5811 5810 5808 5808 5808 5809 5809 5808 5807 5806 5805 5803 5802 5801 5799 5798 5795 5793 5791 5788 5786 5783 5780 5777 5775 5772 5768 5765 5761 5757 5753 5750 5746 5741 5737 5733 5729 5725 5720 5716 5711 5707
5805 5804 5803 5803 5803 5801 5800 5800 5800 5800 5799 5798 5797 5796 5795 5793 5791 5788 5786 5784 5781 5778 5775 5772 5769 5765 5762 5759 5755 5751 5747 5743 5739 5735 5731 5727 5722 5718 5714 5709 5705 5700 5696 5691
5797 5797 5796 5795 5794 5793 5793 5792 5792 5791 5791 5790 5788 5787 5786 5783 5781 5779 5776 5773 5770 5767 5764 5760 5757 5753 5750 5746 5742 5738 5733 5729 5725 5720 5716 5711 5707 5703 5698 5694 5688 5684 5680 5675
5791 5790 5789 5788 5787 5786 5786 5785 5784 5783 5783 5782 5780 5778 5775 5773 5770 5768 5765 5762 5758 5755 5752 5748 5745 5741 5737 5733 5728 5724 5720 5715 5710 5705 5700 5695 5691 5687 5681 5676 5672 5666 5662 5657
5784 5782 5781 5780 5779 5778 5778 5777 5776 5775 5774 5772 5770 5767 5765 5762 5759 5756 5753 5750 5746 5743 5739 5735 5731 5727 5723 5718 5713 5708 5703 5698 5693 5688 5682 5677 5672 5667 5664 5659 5653 5647 5643 5638
5776 5775 5773 5772 5771 5770 5770 5769 5767 5766 5764 5762 5759 5756 5753 5750 5747 5744 5741 5737 5733 5729 5725 5721 5716 5712 5707 5702 5697 5691 5685 5679 5674 5668 5662 5657 5651 5646 5641 5637 5634 5629 5624 5619
5768 5767 5765 5763 5762 5761 5760 5759 5757 5755 5753 5751 5748 5745 5742 5739 5735 5732 5728 5724 5719 5715 5710 5705 5700 5695 5690 5684 5678 5672 5666 5660 5654 5647 5641 5635 5629 5623 5618 5614 5610 5607 5604 5600
5760 5758 5757 5756 5755 5753 5751 5750 5748 5745 5742 5740 5737 5734 5730 5727 5723 5719 5714 5710 5705 5700 5695 5689 5683 5677 5671 5665 5658 5652 5645 5638 5632 5625 5619 5612 5606 5601 5596 5592 5588 5585 5583 5581
5751 5750 5749 5748 5747 5746 5744 5741 5739 5736 5733 5730 5726 5723 5719 5714 5710 5705 5700 5695 5689 5684 5678 5671 5665 5658 5651 5644 5637 5630 5624 5617 5609 5603 5596 5589 5584 5578 5574 5570 5567 5564 5563 5561
5743 5742 5741 5740 5739 5737 5735 5732 5729 5726 5722 5719 5715 5710 5706 5701 5697 5691 5686 5680 5674 5667 5660 5653 5646 5639 5631 5624 5617 5610 5602 5595 5588 5581 5574 5567 5561 5556 5552 5548 5546 5544 5544 5543
5734 5733 5732 5731 5729 5727 5724 5721 5718 5714 5710 5706 5702 5697 5692 5687 5682 5676 5670 5664 5657 5650 5643 5635 5628 5620 5613 5605 5598 5590 5583 5576 5569 5561 5554 5548 5542 5537 5533 5530 5528 5527 5527 5528
5726 5724 5723 5721 5718 5716 5713 5709 5706 5702 5698 5693 5688 5683 5678 5673 5667 5661 5654 5647 5640 5633 5625 5618 5610 5603 5596 5588 5581 5574 5566 5559 5552 5545 5538 5531 5525 5520 5516 5514 5513 5513 5513 5514
5717 5715 5712 5710 5707 5704 5700 5696 5692 5688 5684 5679 5674 5669 5663 5658 5651 5645 5638 5632 5624 5617 5610 5603 5595 5588 5581 5574 5567 5560 5552 5545 5538 5531 5524 5518 5512 5507 5504 5502 5501 5502 5503 5504
5706 5704 5701 5698 5695 5691 5687 5683 5679 5674 5669 5664 5659 5654 5648 5642 5636 5629 5623 5616 5610 5603 5596 5590 5583 5576 5569 5562 5555 5547 5540 5533 5525 5519 5512 5507 5502 5497 5494 5493 5493 5493 5494 5496
5694 5692 5689 5685 5682 5678 5674 5670 5665 5660 5655 5650 5644 5639 5633 5628 5622 5616 5610 5604 5597 5591 5585 5578 5572 5565 5558 5551 5544 5536 5529 5522 5515 5508 5502 5497 5493 5489 5487 5486 5486 5487 5489 5490
5682 5679 5676 5672 5669 5665 5660 5656 5650 5645 5640 5635 5630 5625 5620 5615 5609 5604 5598 5592 5587 5581 5575 5569 5562 5556 5549 5541 5534 5527 5520 5513 5506 5499 5494 5490 5486 5483 5482 5481 5482 5483 5484 5486
5670 5667 5663 5659 5655 5651 5646 5641 5637 5632 5626 5621 5617 5612 5607 5603 5598 5593 5588 5583 5578 5573 5567 5560 5554 5547 5540 5532 5525 5518 5512 5505 5498 5493 5488 5484 5482 5480 5479 5479 5479 5481 5482 5484
5658 5654 5650 5646 5642 5637 5633 5628 5623 5619 5614 5610 5605 5601 5597 5592 5588 5584 5579 5575 5570 5565 5559 5552 5546 5539 5532 5525 5518 5511 5505 5499 5493 5488 5484 5481 5480 5479 5478 5478 5479 5480 5482 5483
5644 5640 5636 5632 5628 5623 5619 5615 5610 5606 5603 5599 5595 5591 5587 5584 5580 5576 5572 5567 5562 5557 5551 5545 5538 5532 5525 5518 5512 5506 5500 5495 5490 5487 5484 5482 5480 5479 5479 5480 5480 5481 5483 5484